Hourly Weather Roundup
Issued by NWS Central Illinois

Home | Current Version | Previous Version | Text Only | Print | Product List | Glossary On
Versions: 1 2 3 4 5 6 7 8 9 10 11 12 13 14 15 16 17 18 19 20 21 22 23 24 25 26 27 28 29 30 31 32 33 34 35 36 37 38 39 40 41 42 43 44 45 46 47 48 49 50
000
NZUS43 KILX 221110
HWRILX

Area Weather Roundup
National Weather Service Lincoln IL
500 AM CST MON JAN 22 2018

NOTE:  "FAIR" indicates few or no clouds below 12,000 feet, with
       no sigificant weather and/or obstructions to visibility.


CITY           SKY/WX    TMP DP  RH WIND       PRES   REMARKS
Bloomington    LGT RAIN  50  48  93 S24G32    29.60F
Champaign      MOCLDY    51  46  83 S21       29.64F
Danville       FAIR      52  45  78 S17       29.64F
Decatur        HVY RAIN  51  50  96 S22       29.66R FOG
Effingham      TSTM      54  47  78 SW21      29.75R
Flora          MOCLDY    54  46  74 S16       29.66F
Galesburg      NOT AVBL
Jacksonville   CLOUDY    51  51  98 SE10      29.55F
Lacon          RAIN      52  52 100 S10       29.57F
Lawrenceville  FAIR      52  44  74 S21G31    29.71F
Litchfield     RAIN      52  51  99 S15       29.64S
$$


CITY           SKY/WX    TMP DP  RH WIND       PRES   REMARKS
Lincoln        RAIN      53  53  99 S12G26    29.61R
Macomb         LGT RAIN  51  51 100 SE10      29.52F
Mattoon        FAIR      52  45  77 S16G26    29.64F
Mt Carmel AP   FAIR      53  44  72 S21G28    29.69F
Olney-Noble AP FAIR      54  44  67 S17G24    29.67F
Paris AP       FAIR      48  45  87 SE16      29.67F
Peoria         LGT RAIN  53  52  96 SE9       29.57F
Pontiac        TSTM      48  48  99 S9        29.64S
Rantoul        CLOUDY    49  47  92 SE14G21   29.64F
Robinson       FAIR      53  44  74 S18       29.70F
Springfield    LGT RAIN  54  53  97 S13       29.59F
Taylorville    LGT RAIN  51  51  99 S16G22    29.65F
$$

...REGIONAL REPORTS...


CITY           SKY/WX    TMP DP  RH WIND       PRES   REMARKS
Chicago O`Hare RAIN      46  45  96 E8        29.67F FOG
Kankakee       MOCLDY   N/A N/A N/A SE7       29.66F
Moline         LGT RAIN  49  48  97 E9        29.54F VSB 3/4
Mount Sterling CLOUDY    49  49  99 SE8       29.53F FOG
Mount Vernon   TSTM      54  52  94 SW18G26   29.75R FOG
Pittsfield     CLOUDY    51  51 100 CALM      29.56R
Quincy         CLOUDY    53  51  93 S12       29.53F
Rockford       RAIN      40  39  97 NE8       29.65F FOG     WCI  34
$$


CITY           SKY/WX    TMP DP  RH WIND       PRES   REMARKS
Burlington     CLOUDY    52  50  93 SE10      29.48F
Cedar Rapids   FOG       41  41 100 E18G25    29.51F VSB 1/2 WCI  32
Des Moines     CLOUDY    39  38  96 NE17      29.41F WCI  30
Kirksville     CLOUDY    51  51 100 SE13      29.46F
Ottumwa        LGT RAIN  53  50  89 S14       29.45F
St Louis       LGT RAIN  55  54  96 S9        29.60F
$$


CITY           SKY/WX    TMP DP  RH WIND       PRES   REMARKS
Terre Haute    MOCLDY    50  43  77 SE15      29.71F
Evansville     MOCLDY    57  45  64 S14G21    29.75F
Indianapolis   MOCLDY    49  46  90 SE12      29.78F
Lafayette      CLOUDY    51  46  83 S9        29.71F
Madison        LGT RAIN  36  36 100 NE13      29.71F FOG     WCI  27
Milwaukee      DRZL/FOG  37  37 100 N14       29.72F VSB 1/2 WCI  28
$$






USA.gov is the U.S. government's official web portal to all federal, state and local government web resources and services.